Weather in Sao Jose dos Campos

Brazil     23°10′45″S   45°53′13″W
temp.,
°C
wind,
m/s
gust,
m/s
humid.,
%
clouds,
%
prec.,
mm/h
press.,
hPa
HPBL,
m
13 june, sun
sun1300:00+12ssw12927 0.0 102251
03:00+12e009145 0.0 102155
06:00+13e128897 0.0 1022116
09:00+15ene228052 0.0 1024438
12:00+19ese236068 0.1 10221235
15:00+19se335992 0.1 10201044
18:00+14se36804 0.0 1022227
21:00+12ssw128916 0.0 1024118
14 june, mon
mon1400:00+11s01916 0.0 102485
03:00+10se119349 0.0 102362
06:00+12se118699 0.0 102297
09:00+15ene24732 0.0 1023505
12:00+20ene23540 0.0 1021900
15:00+22ene11460 0.0 1018951
18:00+17se11700 0.0 101912
21:00+13s11880 0.0 102131
15 june, tue
tue1500:00+12e11910 0.0 102142
03:00+11w00940 0.0 102019
06:00+11ne12953 0.0 102039
09:00+15e11760 0.0 1021282
12:00+22wsw11530 0.0 1019614
15:00+23sse22470 0.0 1015786
18:00+16s37870 0.0 1017238
21:00+15ssw2487100 0.0 1020462
16 june, wed
wed1600:00+15wsw1284100 0.1 1020202
03:00+15ne0190100 0.3 1019138
06:00+14s259099 0.1 1020244
09:00+16s23741 0.1 1021464
12:00+21s22508 0.0 10191387
15:00+20s545412 0.0 10171210
18:00+14s368918 0.0 1020307
21:00+14s238898 0.0 1022346
17 june, thu
thu1700:00+15se2377100 0.0 1021505
03:00+15se2274100 0.1 1020150
06:00+14e227990 0.0 1021124
09:00+16e237469 0.1 1023483
12:00+19ene225524 0.0 10211188
15:00+21sse224913 0.0 10181512
18:00+15s36848 0.0 1020284
21:00+13se1291100 0.0 1022139